When you browse on this site, cookies collect data to enhance your experience and personalize the content and advertising you see.
Visit our Privacy Policy to learn more. By continuing to use the site, you agree to this use of cookies and data.
  • In Lithuania
  • List of Countries
  • For 7 days
  • Water Temperature
  • Satellite Maps
  • Weather Map
  • Weather Widgets
  • user-avatar
    Login

    Hourly Weather Dimapur

    Today, 14 December, Friday

    Time Temperature Precipitation Wind Pressure Humidity
    00:00 +19°C° 0 mm 1 mps 749 mmHg 78%
    01:00 +19°C° 0 mm 1 mps 749 mmHg 78%
    02:00 +19°C° 0 mm 1 mps 749 mmHg 79%
    03:00 +19°C° 0 mm 1 mps 749 mmHg 79%
    04:00 +18°C° 0 mm 1 mps 749 mmHg 80%
    05:00 +18°C° 0 mm 1 mps 749 mmHg 81%
    06:00 +16°C° 0 mm 0 mps 749 mmHg 80%
    07:00 +19°C° 0 mm 0 mps 749 mmHg 74%
    08:00 +21°C° 0 mm 0 mps 749 mmHg 68%
    09:00 +23°C° 0 mm 0 mps 750 mmHg 62%
    10:00 +26°C° 0.1 mm 1 mps 749 mmHg 58%
    11:00 +27°C° 0.1 mm 1 mps 749 mmHg 53%
    12:00 +28°C° 0.1 mm 1 mps 749 mmHg 49%
    13:00 +28°C° 0.1 mm 1 mps 748 mmHg 51%
    14:00 +28°C° 0.1 mm 1 mps 747 mmHg 52%
    15:00 +28°C° 0.1 mm 1 mps 747 mmHg 53%
    16:00 +25°C° 0 mm 1 mps 747 mmHg 61%
    17:00 +23°C° 0 mm 1 mps 747 mmHg 69%
    18:00 +21°C° 0 mm 1 mps 747 mmHg 76%
    19:00 +20°C° 0 mm 1 mps 748 mmHg 78%
    20:00 +20°C° 0 mm 1 mps 748 mmHg 79%
    21:00 +19°C° 0 mm 1 mps 749 mmHg 80%
    22:00 +19°C° 0 mm 1 mps 749 mmHg 80%
    23:00 +19°C° 0 mm 1 mps 749 mmHg 80%

    Tomorrow, 15 December, Saturday

    Time Temperature Precipitation Wind Pressure Humidity
    00:00 +19°C° 0 mm 1 mps 750 mmHg 81%
    01:00 +17°C° 0 mm 0 mps 749 mmHg 81%
    02:00 +16°C° 0 mm 0 mps 749 mmHg 81%
    03:00 +16°C° 0 mm 0 mps 749 mmHg 81%
    04:00 +16°C° 0 mm 0 mps 749 mmHg 81%
    05:00 +16°C° 0 mm 0 mps 749 mmHg 82%
    06:00 +16°C° 0 mm 0 mps 750 mmHg 83%
    07:00 +17°C° 0 mm 0 mps 750 mmHg 76%
    08:00 +21°C° 0 mm 1 mps 751 mmHg 70%
    09:00 +23°C° 0 mm 1 mps 751 mmHg 63%
    10:00 +24°C° 0 mm 1 mps 751 mmHg 58%
    11:00 +26°C° 0 mm 1 mps 750 mmHg 53%
    12:00 +27°C° 0 mm 1 mps 750 mmHg 48%
    13:00 +27°C° 0 mm 1 mps 749 mmHg 49%
    14:00 +27°C° 0 mm 1 mps 749 mmHg 50%
    15:00 +26°C° 0 mm 1 mps 748 mmHg 52%
    16:00 +25°C° 0 mm 1 mps 749 mmHg 58%
    17:00 +23°C° 0 mm 1 mps 749 mmHg 65%
    18:00 +21°C° 0 mm 1 mps 749 mmHg 72%
    19:00 +21°C° 0 mm 1 mps 749 mmHg 72%
    20:00 +18°C° 0 mm 0 mps 750 mmHg 72%
    21:00 +18°C° 0 mm 0 mps 750 mmHg 73%
    22:00 +18°C° 0 mm 0 mps 750 mmHg 73%
    23:00 +18°C° 0 mm 0 mps 750 mmHg 73%

    Day after tomorrow, 16 December, Sunday

    Time Temperature Precipitation Wind Pressure Humidity
    00:00 +18°C° 0 mm 0 mps 750 mmHg 73%
    01:00 +18°C° 0 mm 0 mps 750 mmHg 72%
    02:00 +18°C° 0 mm 0 mps 750 mmHg 71%
    03:00 +18°C° 0 mm 0 mps 750 mmHg 71%
    04:00 +18°C° 0 mm 0 mps 750 mmHg 71%
    05:00 +18°C° 0 mm 0 mps 750 mmHg 71%
    06:00 +17°C° 0 mm 0 mps 750 mmHg 71%
    07:00 +21°C° 0 mm 1 mps 751 mmHg 67%
    08:00 +22°C° 0 mm 1 mps 751 mmHg 63%
    09:00 +24°C° 0 mm 1 mps 752 mmHg 59%
    10:00 +23°C° 0 mm 1 mps 751 mmHg 60%
    11:00 +23°C° 0 mm 1 mps 751 mmHg 62%
    12:00 +21°C° 0 mm 0 mps 751 mmHg 64%
    13:00 +21°C° 0.1 mm 0 mps 750 mmHg 64%
    14:00 +22°C° 0.1 mm 0 mps 750 mmHg 65%
    15:00 +22°C° 0.1 mm 0 mps 749 mmHg 65%
    16:00 +21°C° 0 mm 0 mps 750 mmHg 69%
    17:00 +20°C° 0 mm 0 mps 750 mmHg 72%
    18:00 +18°C° 0 mm 0 mps 750 mmHg 76%
    19:00 +18°C° 0 mm 0 mps 750 mmHg 75%
    20:00 +18°C° 0 mm 0 mps 751 mmHg 74%
    21:00 +18°C° 0 mm 0 mps 751 mmHg 73%
    22:00 +18°C° 0 mm 0 mps 751 mmHg 73%
    23:00 +18°C° 0 mm 0 mps 751 mmHg 73%

    17 December, Monday

    Time Temperature Precipitation Wind Pressure Humidity
    00:00 +18°C° 0 mm 0 mps 750 mmHg 74%
    01:00 +19°C° 0 mm 1 mps 750 mmHg 74%
    02:00 +19°C° 0 mm 1 mps 750 mmHg 75%
    03:00 +19°C° 0 mm 1 mps 749 mmHg 76%
    04:00 +19°C° 0.1 mm 1 mps 749 mmHg 76%
    05:00 +19°C° 0.1 mm 1 mps 749 mmHg 76%
    06:00 +19°C° 0.1 mm 1 mps 749 mmHg 75%
    07:00 +20°C° 0 mm 1 mps 750 mmHg 70%
    08:00 +22°C° 0 mm 1 mps 750 mmHg 65%
    09:00 +24°C° 0 mm 1 mps 751 mmHg 60%
    10:00 +24°C° 0 mm 1 mps 751 mmHg 59%
    11:00 +25°C° 0 mm 1 mps 750 mmHg 58%
    12:00 +25°C° 0 mm 1 mps 750 mmHg 58%
    13:00 +24°C° 0.1 mm 1 mps 750 mmHg 62%
    14:00 +24°C° 0.1 mm 1 mps 749 mmHg 66%
    15:00 +21°C° 0.1 mm 0 mps 748 mmHg 70%
    16:00 +20°C° 0.2 mm 0 mps 748 mmHg 73%
    17:00 +19°C° 0.2 mm 0 mps 749 mmHg 75%
    18:00 +19°C° 0.2 mm 0 mps 749 mmHg 77%
    19:00 +18°C° 0 mm 0 mps 749 mmHg 78%
    20:00 +18°C° 0 mm 0 mps 749 mmHg 78%
    21:00 +18°C° 0 mm 0 mps 750 mmHg 79%
    22:00 +17°C° 0.2 mm 0 mps 749 mmHg 82%
    23:00 +17°C° 0.2 mm 0 mps 749 mmHg 85%

    18 December, Tuesday

    Time Temperature Precipitation Wind Pressure Humidity
    00:00 +16°C° 0.2 mm 0 mps 749 mmHg 88%
    01:00 +18°C° 1.1 mm 1 mps 748 mmHg 90%
    02:00 +18°C° 1.1 mm 1 mps 748 mmHg 92%
    03:00 +18°C° 1.1 mm 1 mps 748 mmHg 94%
    04:00 +18°C° 1.5 mm 1 mps 748 mmHg 95%
    05:00 +18°C° 1.5 mm 1 mps 748 mmHg 96%
    06:00 +18°C° 1.5 mm 1 mps 748 mmHg 97%
    07:00 +18°C° 1.2 mm 1 mps 749 mmHg 97%
    08:00 +18°C° 1.2 mm 1 mps 749 mmHg 96%
    09:00 +18°C° 1.2 mm 1 mps 750 mmHg 96%
    10:00 +18°C° 2.2 mm 1 mps 749 mmHg 97%
    11:00 +18°C° 2.2 mm 1 mps 749 mmHg 97%
    12:00 +18°C° 2.2 mm 1 mps 748 mmHg 97%
    13:00 +18°C° 0.8 mm 1 mps 748 mmHg 97%
    14:00 +18°C° 0.8 mm 1 mps 747 mmHg 97%
    15:00 +18°C° 0.8 mm 1 mps 746 mmHg 97%
    16:00 +18°C° 0.4 mm 1 mps 747 mmHg 97%
    17:00 +18°C° 0.4 mm 1 mps 747 mmHg 97%
    18:00 +18°C° 0.4 mm 1 mps 747 mmHg 98%
    19:00 +18°C° 0.1 mm 1 mps 747 mmHg 98%
    20:00 +18°C° 0.1 mm 1 mps 748 mmHg 98%
    21:00 +18°C° 0.1 mm 1 mps 748 mmHg 98%
    22:00 +18°C° 0.1 mm 1 mps 748 mmHg 97%
    23:00 +16°C° 0.1 mm 0 mps 748 mmHg 97%

    19 December, Wednesday

    Time Temperature Precipitation Wind Pressure Humidity
    00:00 +16°C° 0.1 mm 0 mps 747 mmHg 97%
    01:00 +16°C° 0.1 mm 0 mps 747 mmHg 97%
    02:00 +16°C° 0.1 mm 0 mps 747 mmHg 97%
    03:00 +16°C° 0.1 mm 0 mps 747 mmHg 98%
    04:00 +16°C° 0.1 mm 0 mps 747 mmHg 97%
    05:00 +16°C° 0.1 mm 0 mps 747 mmHg 97%
    06:00 +16°C° 0.1 mm 0 mps 747 mmHg 97%
    07:00 +17°C° 0.1 mm 0 mps 748 mmHg 96%
    08:00 +18°C° 0.1 mm 0 mps 749 mmHg 94%
    09:00 +20°C° 0.1 mm 1 mps 749 mmHg 92%
    10:00 +22°C° 0.1 mm 1 mps 749 mmHg 86%
    11:00 +23°C° 0.1 mm 1 mps 748 mmHg 80%
    12:00 +24°C° 0.1 mm 1 mps 748 mmHg 75%
    13:00 +24°C° 0.1 mm 1 mps 747 mmHg 74%
    14:00 +24°C° 0.1 mm 1 mps 747 mmHg 74%
    15:00 +24°C° 0.1 mm 1 mps 746 mmHg 74%
    16:00 +21°C° 0 mm 0 mps 747 mmHg 81%
    17:00 +19°C° 0 mm 0 mps 747 mmHg 87%
    18:00 +17°C° 0 mm 0 mps 748 mmHg 94%
    19:00 +17°C° 0 mm 0 mps 748 mmHg 95%
    20:00 +17°C° 0 mm 0 mps 748 mmHg 96%
    21:00 +16°C° 0 mm 0 mps 749 mmHg 97%
    22:00 +16°C° 0 mm 0 mps 749 mmHg 97%
    23:00 +16°C° 0 mm 0 mps 749 mmHg 97%
    Show more